Tracking 19219 objects as of 19-Jul-2018
HD Live streaming from Space Station
objects crossing your sky now

FENGYUN 1C DEB

Track FENGYUN 1C DEB now!
10-day predictions


NORAD ID: 30875
Int'l Code: 1999-025AXM
Perigee: 665.5 km
Apogee: 730.4 km
Inclination: 99.1 °
Period: 98.6 minutes
Semi major axis: 7068 km
RCS: 0.0106 m2 (small)
Launch date: May 10, 1999
Source: People's Republic of China (PRC)
Launch site: Taiyaun Space Center, China (TSC)

Note: This is SATELLITE DEBRIS
aabbcc
Your satellite tracking list
Your tracking list is empty




NASA's NSSDC Master Catalog

Two Line Element Set (TLE):
1 30875U 99025AXM 18198.95864720  .00004859  00000-0  99277-3 0  9999
2 30875  99.0758  28.5916 0045875  52.7275 307.8093 14.60739714590502
Source of the keplerian elements: AFSPC